Twin Falls, ID

11:38 PM MDT on August 29, 2016 (GMT -0600)
Joslin Field-Magic Valley Regional

Weather History for KTWF - October, 2012

Change the Weather History Date:

Tuesday, October 23, 2012

  Actual Average Record
Temperature  
Mean Temperature 39 °F -  
Max Temperature 47 °F 60 °F 75 °F (1983)
Min Temperature 30 °F 35 °F 21 °F (1984)
Degree Days  
Heating Degree Days 26 17  
Month to date heating degree days 288 305  
Since 1 July heating degree days 304 466  
Cooling Degree Days 0 0  
Month to date cooling degree days 5 0  
Year to date cooling degree days 970 678  
Moisture  
Dew Point 28 °F    
Average Humidity 61    
Maximum Humidity 79    
Minimum Humidity 42    
Precipitation  
Precipitation T in 0.02 in 0.60 in (1985)
Month to date precipitation 0.46 0.57  
Year to date precipitation 7.38 8.02  
Sea Level Pressure  
Sea Level Pressure 29.84 in    
Wind  
Wind Speed 9 mph (SSW)    
Max Wind Speed 21 mph    
Max Gust Speed 26 mph    
Visibility 10 miles    
Events Snow    
T = Trace of Precipitation, MM = Missing Value Source: NWS Daily Summary

Daily Weather History Graph

Daily Weather History Graph

Search for Another Location

Airport or City:

Trip Planner

Search our weather history database for the weather conditions in past years. The results will help you decide how hot, cold, wet, or windy it might be!

Date:

Astronomy

Oct. 23, 2012 Rise Set
Actual Time 8:01 AM MDT 6:42 PM MDT
Civil Twilight 7:32 AM MDT 7:11 PM MDT
Nautical Twilight 6:59 AM MDT 7:44 PM MDT
Astronomical Twilight 6:26 AM MDT 8:16 PM MDT
Moon 3:34 PM MDT (10/23) 1:50 AM MDT (10/23)
Length of Visible Light 11h 38m
Length of Day
10h 41m
Waxing Gibbous, 67% of the Moon is Illuminated
Oct 23
Waxing Gibbous
Oct 29
Full
Nov 6
Last Quarter
Nov 13
New
Nov 20
First Quarter

Hourly Weather History & Observations

Time (MDT) Temp. Windchill Dew Point Humidity Pressure Visibility Wind Dir Wind Speed Gust Speed Precip Events Conditions
12:53 AM 41.0 °F 34.7 °F 30.9 °F 67% 29.70 in 10.0 mi South 10.4 mph - N/A   Overcast
1:53 AM 41.0 °F 36.4 °F 30.0 °F 65% 29.70 in 10.0 mi SSW 6.9 mph - N/A   Overcast
2:53 AM 39.9 °F 33.9 °F 32.0 °F 73% 29.72 in 10.0 mi South 9.2 mph - N/A   Overcast
3:53 AM 39.0 °F 33.4 °F 33.1 °F 79% 29.73 in 10.0 mi South 8.1 mph - N/A   Scattered Clouds
4:53 AM 37.0 °F 31.6 °F 30.9 °F 79% 29.73 in 10.0 mi South 6.9 mph - N/A   Mostly Cloudy
5:53 AM 35.1 °F 30.1 °F 28.9 °F 78% 29.75 in 10.0 mi South 5.8 mph - N/A   Clear
6:53 AM 37.9 °F 30.0 °F 28.9 °F 70% 29.75 in 10.0 mi South 12.7 mph - N/A   Partly Cloudy
7:53 AM 41.0 °F 34.3 °F 28.9 °F 62% 29.75 in 10.0 mi SSE 11.5 mph - N/A   Overcast
9:53 AM 41.0 °F 33.9 °F 30.0 °F 65% 29.83 in 10.0 mi SW 12.7 mph - N/A   Overcast
10:53 AM 42.1 °F 34.5 °F 27.0 °F 55% 29.85 in 10.0 mi SW 15.0 mph 23.0 mph N/A   Overcast
11:53 AM 43.0 °F 35.1 °F 26.1 °F 51% 29.85 in 10.0 mi SW 17.3 mph 24.2 mph N/A   Overcast
12:53 PM 43.0 °F 36.0 °F 25.0 °F 49% 29.87 in 10.0 mi WSW 13.8 mph 23.0 mph N/A   Overcast
1:53 PM 46.9 °F - 24.1 °F 41% 29.86 in 10.0 mi SW 13.8 mph - N/A   Mostly Cloudy
2:53 PM 44.1 °F 37.7 °F 28.9 °F 55% 29.87 in 10.0 mi NNW 12.7 mph 23.0 mph N/A   Overcast
3:53 PM 43.0 °F 38.8 °F 30.0 °F 60% 29.89 in 10.0 mi NW 6.9 mph - N/A   Overcast
4:53 PM 43.0 °F 40.3 °F 28.9 °F 58% 29.91 in 10.0 mi NNW 4.6 mph - 0.00 in   Overcast
5:53 PM 42.1 °F - 28.9 °F 60% 29.93 in 10.0 mi Calm Calm - N/A   Overcast
6:53 PM 39.0 °F 35.7 °F 28.0 °F 65% 29.94 in 10.0 mi West 4.6 mph - N/A   Partly Cloudy
7:53 PM 34.0 °F 26.6 °F 27.0 °F 75% 29.95 in 10.0 mi SW 9.2 mph - 0.00 in Snow Light Snow
8:53 PM 33.1 °F 26.1 °F 27.0 °F 78% 29.96 in 9.0 mi South 8.1 mph - 0.00 in Snow Light Snow
9:53 PM 33.1 °F 26.1 °F 26.1 °F 75% 29.94 in 9.0 mi South 8.1 mph - 0.00 in Snow Light Snow
10:53 PM 33.1 °F 25.5 °F 25.0 °F 72% 29.95 in 9.0 mi South 9.2 mph - 0.00 in Snow Light Snow
11:53 PM 35.1 °F 28.6 °F 24.1 °F 64% 29.95 in 9.0 mi South 8.1 mph - 0.00 in Snow Light Snow